�������l�o���
Date,Time,MP-1(��Sv/h),MP-2(��Sv/h),MP-3(��Sv/h),MP-4(��Sv/h),MP-5(��Sv/h),MP-6(��Sv/h),MP-7(��Sv/h),MP-8(��Sv/h),����,����(m/s),���J
2018/04/18,00:00,0.873,1.453,0.906,1.691,1.159,0.486,0.857,0.817,��,5.9,�L
2018/04/18,00:10,0.870,1.453,0.906,1.688,1.160,0.486,0.855,0.816,��,6.6,�L
2018/04/18,00:20,0.870,1.455,0.905,1.692,1.159,0.485,0.857,0.819,��,6.8,�L
2018/04/18,00:30,0.871,1.452,0.907,1.690,1.159,0.486,0.857,0.819,��,6.8,��
2018/04/18,00:40,0.870,1.452,0.907,1.689,1.157,0.485,0.855,0.820,��,6.5,�L
2018/04/18,00:50,0.870,1.453,0.907,1.690,1.159,0.488,0.855,0.817,��,6.4,�L
2018/04/18,01:00,0.869,1.453,0.906,1.689,1.160,0.487,0.857,0.820,��,6.4,�L
2018/04/18,01:10,0.870,1.454,0.907,1.694,1.159,0.485,0.857,0.817,��,6.6,�L
2018/04/18,01:20,0.871,1.452,0.908,1.691,1.162,0.487,0.857,0.818,��,6.6,��
2018/04/18,01:30,0.870,1.452,0.907,1.687,1.157,0.486,0.859,0.819,��,6.2,�L
2018/04/18,01:40,0.870,1.452,0.908,1.691,1.160,0.483,0.858,0.819,��,6.4,�L
2018/04/18,01:50,0.869,1.453,0.907,1.689,1.161,0.487,0.856,0.818,��,6.0,�L
2018/04/18,02:00,0.868,1.455,0.908,1.690,1.159,0.484,0.857,0.818,��,5.6,�L
2018/04/18,02:10,0.870,1.451,0.905,1.690,1.159,0.488,0.857,0.818,��,4.9,�L
2018/04/18,02:20,0.871,1.449,0.906,1.690,1.160,0.485,0.857,0.820,��,5.4,�L
2018/04/18,02:30,0.869,1.451,0.906,1.688,1.159,0.487,0.855,0.819,��,5.0,�L
2018/04/18,02:40,0.873,1.450,0.909,1.691,1.157,0.488,0.855,0.817,��,4.9,�L
2018/04/18,02:50,0.869,1.452,0.906,1.690,1.158,0.488,0.854,0.817,��,5.2,�L
2018/04/18,03:00,0.869,1.450,0.908,1.691,1.156,0.486,0.855,0.818,��,5.2,�L
2018/04/18,03:10,0.870,1.448,0.905,1.689,1.158,0.486,0.855,0.819,��,5.2,�L
2018/04/18,03:20,0.868,1.446,0.908,1.689,1.155,0.486,0.855,0.819,��,4.8,�L
2018/04/18,03:30,0.866,1.448,0.905,1.686,1.153,0.486,0.853,0.817,��,5.1,�L
2018/04/18,03:40,0.866,1.442,0.904,1.683,1.151,0.486,0.853,0.816,��쓌,4.0,�L
2018/04/18,03:50,0.863,1.439,0.903,1.681,1.149,0.487,0.850,0.817,��쓌,5.2,�L
2018/04/18,04:00,0.862,1.434,0.898,1.679,1.144,0.485,0.849,0.814,��,7.0,�L
2018/04/18,04:10,0.859,1.427,0.899,1.673,1.138,0.486,0.847,0.813,��,7.3,�L
2018/04/18,04:20,0.859,1.424,0.894,1.668,1.135,0.484,0.847,0.812,��,7.1,�L
2018/04/18,04:30,0.856,1.418,0.895,1.665,1.130,0.485,0.844,0.809,��쐼,7.1,�L
2018/04/18,04:40,0.854,1.415,0.893,1.662,1.129,0.485,0.846,0.810,��쐼,6.6,�L
2018/04/18,04:50,0.853,1.411,0.892,1.655,1.127,0.485,0.844,0.809,��쐼,6.3,�L
2018/04/18,05:00,0.851,1.410,0.891,1.652,1.124,0.482,0.845,0.811,��쐼,5.6,�L
2018/04/18,05:10,0.850,1.406,0.889,1.649,1.122,0.485,0.844,0.809,��쐼,5.4,�L
2018/04/18,05:20,0.848,1.403,0.884,1.641,1.119,0.484,0.843,0.810,��쐼,5.3,�L
2018/04/18,05:30,0.846,1.402,0.886,1.639,1.118,0.484,0.842,0.807,��쐼,5.6,�L
2018/04/18,05:40,0.845,1.399,0.884,1.638,1.117,0.483,0.841,0.808,��쐼,5.5,�L
2018/04/18,05:50,0.844,1.395,0.883,1.632,1.116,0.483,0.840,0.807,��쐼,5.2,�L
2018/04/18,06:00,0.843,1.393,0.882,1.632,1.116,0.482,0.840,0.807,��쐼,5.0,�L
2018/04/18,06:10,0.841,1.392,0.880,1.631,1.114,0.480,0.839,0.805,��,5.6,�L
2018/04/18,06:20,0.840,1.389,0.879,1.627,1.112,0.481,0.842,0.806,��쐼,5.3,�L
2018/04/18,06:30,0.842,1.387,0.878,1.623,1.110,0.480,0.837,0.805,��쐼,5.2,�L
2018/04/18,06:40,0.840,1.388,0.876,1.622,1.112,0.480,0.839,0.805,�쐼,4.5,�L
2018/04/18,06:50,0.839,1.385,0.875,1.622,1.110,0.479,0.839,0.806,�쐼,3.7,�L
2018/04/18,07:00,0.839,1.386,0.878,1.620,1.111,0.480,0.839,0.805,�쐼,3.1,�L
2018/04/18,07:10,0.839,1.386,0.876,1.616,1.109,0.479,0.838,0.804,�쐼,2.5,�L
2018/04/18,07:20,0.837,1.383,0.875,1.619,1.109,0.480,0.838,0.807,��쐼,1.2,�L
2018/04/18,07:30,0.838,1.384,0.875,1.614,1.108,0.479,0.839,0.806,��,0.9,�L
2018/04/18,07:40,0.838,1.385,0.874,1.615,1.108,0.480,0.838,0.803,��,1.9,�L
2018/04/18,07:50,0.837,1.382,0.873,1.615,1.103,0.481,0.837,0.805,��쐼,2.3,�L
2018/04/18,08:00,0.835,1.379,0.871,1.609,1.105,0.478,0.837,0.803,�쐼,1.2,�L
2018/04/18,08:10,0.834,1.378,0.872,1.610,1.103,0.480,0.835,0.803,�k,0.6,�L
2018/04/18,08:20,0.835,1.376,0.871,1.607,1.105,0.478,0.836,0.802,-,CALM,�L
2018/04/18,08:30,0.831,1.369,0.868,1.599,1.099,0.479,0.832,0.800,���k��,4.0,�L
2018/04/18,08:40,0.830,1.365,0.865,1.596,1.090,0.475,0.831,0.798,�k��,1.2,�L
2018/04/18,08:50,0.830,1.365,0.866,1.592,1.090,0.478,0.832,0.797,�k��,1.7,�L
2018/04/18,09:00,0.832,1.364,0.864,1.593,1.092,0.475,0.832,0.797,�k,1.4,�L
2018/04/18,09:10,0.830,1.364,0.865,1.593,1.090,0.475,0.831,0.799,�k�k��,1.2,�L
2018/04/18,09:20,0.832,1.362,0.866,1.591,1.090,0.477,0.830,0.798,�k�k��,0.8,�L
2018/04/18,09:30,0.830,1.361,0.863,1.590,1.090,0.474,0.831,0.800,�k�k��,0.9,�L
2018/04/18,09:40,0.829,1.361,0.863,1.592,1.088,0.475,0.832,0.799,�k�k��,0.9,�L
2018/04/18,09:50,0.830,1.363,0.862,1.589,1.087,0.475,0.831,0.800,�k,0.8,�L
2018/04/18,10:00,0.830,1.362,0.863,1.590,1.089,0.474,0.830,0.800,�k�k��,1.5,�L
2018/04/18,10:10,0.830,1.363,0.863,1.592,1.087,0.477,0.830,0.797,�k,1.7,�L
2018/04/18,10:20,0.831,1.362,0.863,1.590,1.088,0.474,0.830,0.798,�k,1.7,�L
2018/04/18,10:30,0.829,1.360,0.862,1.588,1.089,0.474,0.830,0.798,�k�k��,2.3,�L
2018/04/18,10:40,0.829,1.360,0.861,1.589,1.085,0.474,0.831,0.796,�k�k��,2.6,�L
2018/04/18,10:50,0.829,1.357,0.863,1.588,1.085,0.476,0.830,0.796,�k,2.2,�L
2018/04/18,11:00,0.830,1.358,0.860,1.588,1.086,0.474,0.828,0.796,�k,1.5,�L
2018/04/18,11:10,0.828,1.356,0.860,1.587,1.084,0.473,0.830,0.796,�k,1.7,�L
2018/04/18,11:20,0.825,1.351,0.859,1.579,1.078,0.475,0.827,0.795,���쐼,4.8,�L
2018/04/18,11:30,0.826,1.349,0.857,1.572,1.075,0.473,0.827,0.796,���쓌,4.4,�L
2018/04/18,11:40,0.824,1.350,0.856,1.574,1.075,0.473,0.827,0.795,�k�k��,3.5,�L
2018/04/18,11:50,0.826,1.352,0.857,1.578,1.077,0.471,0.827,0.796,�k�k��,4.0,�L
2018/04/18,12:00,0.827,1.351,0.858,1.579,1.079,0.472,0.828,0.794,�k�k��,4.0,�L
2018/04/18,12:10,0.827,1.351,0.857,1.576,1.080,0.471,0.826,0.796,�k��,2.9,�L
2018/04/18,12:20,0.824,1.345,0.853,1.571,1.074,0.471,0.827,0.795,�k�k��,3.7,�L
2018/04/18,12:30,0.822,1.345,0.854,1.573,1.073,0.471,0.825,0.794,�k�k��,4.8,�L
2018/04/18,12:40,0.823,1.346,0.855,1.569,1.074,0.472,0.826,0.793,�k��,5.0,�L
2018/04/18,12:50,0.824,1.343,0.854,1.569,1.071,0.471,0.824,0.792,�k�k��,5.4,�L
2018/04/18,13:00,0.824,1.348,0.854,1.572,1.073,0.470,0.825,0.795,�k�k��,5.0,�L
2018/04/18,13:10,0.825,1.350,0.853,1.572,1.074,0.472,0.826,0.796,�k�k��,4.4,�L
2018/04/18,13:20,0.824,1.352,0.855,1.574,1.074,0.472,0.825,0.794,�k�k��,3.8,�L
2018/04/18,13:30,0.826,1.348,0.852,1.575,1.075,0.471,0.826,0.795,�k,4.1,�L
2018/04/18,13:40,0.822,1.344,0.853,1.570,1.072,0.473,0.825,0.794,�k,3.9,�L
2018/04/18,13:50,0.824,1.345,0.851,1.567,1.074,0.472,0.824,0.794,���k��,4.1,�L
2018/04/18,14:00,0.819,1.341,0.850,1.564,1.069,0.472,0.826,0.795,�k,2.3,�L
2018/04/18,14:10,0.820,1.342,0.851,1.562,1.069,0.471,0.823,0.795,�k��,3.9,�L
2018/04/18,14:20,0.819,1.343,0.851,1.564,1.069,0.470,0.822,0.793,�k,4.1,�L
2018/04/18,14:30,0.821,1.346,0.848,1.565,1.071,0.470,0.823,0.794,�k,3.4,�L
2018/04/18,14:40,0.823,1.345,0.851,1.567,1.073,0.470,0.823,0.795,�k,3.3,�L
2018/04/18,14:50,0.823,1.347,0.851,1.571,1.072,0.472,0.825,0.793,�k,4.0,�L
2018/04/18,15:00,0.823,1.351,0.852,1.568,1.072,0.472,0.826,0.796,�k,3.8,�L
2018/04/18,15:10,0.825,1.353,0.854,1.572,1.072,0.472,0.824,0.796,�k,3.1,�L
2018/04/18,15:20,0.824,1.352,0.853,1.570,1.073,0.474,0.825,0.796,�k�k��,3.4,�L
2018/04/18,15:30,0.826,1.353,0.853,1.575,1.074,0.473,0.824,0.794,�k,2.5,�L
2018/04/18,15:40,0.824,1.356,0.854,1.573,1.077,0.471,0.828,0.796,�k,2.6,�L
2018/04/18,15:50,0.825,1.356,0.852,1.575,1.074,0.470,0.825,0.795,�k�k��,2.6,��
2018/04/18,16:00,0.825,1.355,0.853,1.578,1.076,0.472,0.826,0.795,�k�k��,2.3,��
2018/04/18,16:10,0.827,1.356,0.853,1.578,1.077,0.471,0.826,0.798,�k��,3.3,��
2018/04/18,16:20,0.825,1.357,0.855,1.577,1.078,0.472,0.827,0.798,�k��,3.3,�L
2018/04/18,16:30,0.826,1.357,0.854,1.579,1.079,0.472,0.827,0.798,�k,3.6,�L
2018/04/18,16:40,0.823,1.359,0.854,1.581,1.082,0.472,0.828,0.798,�k�k��,5.7,�L
2018/04/18,16:50,0.825,1.358,0.854,1.580,1.080,0.471,0.829,0.797,�k�k��,5.9,�L
2018/04/18,17:00,0.826,1.360,0.851,1.579,1.080,0.471,0.828,0.799,�k,4.2,��
2018/04/18,17:10,0.826,1.360,0.854,1.581,1.084,0.470,0.829,0.797,�k�k��,3.2,��
2018/04/18,17:20,0.826,1.363,0.856,1.582,1.083,0.471,0.829,0.799,�k,3.3,�L
2018/04/18,17:30,0.826,1.362,0.854,1.584,1.080,0.473,0.828,0.797,�k�k��,2.0,�L
2018/04/18,17:40,0.825,1.362,0.854,1.583,1.082,0.473,0.829,0.798,�k�k��,2.6,�L
2018/04/18,17:50,0.823,1.362,0.856,1.581,1.083,0.470,0.828,0.798,�k�k��,2.2,��
2018/04/18,18:00,0.825,1.363,0.855,1.585,1.081,0.472,0.829,0.799,�k�k��,3.0,��
2018/04/18,18:10,0.823,1.360,0.855,1.584,1.082,0.471,0.831,0.799,�k�k��,3.2,��
2018/04/18,18:20,0.824,1.363,0.855,1.582,1.082,0.470,0.829,0.797,�k�k��,2.9,��
2018/04/18,18:30,0.824,1.361,0.856,1.583,1.083,0.472,0.830,0.798,�k�k��,2.5,��
2018/04/18,18:40,0.825,1.362,0.857,1.583,1.082,0.473,0.831,0.799,�k��,2.5,��
2018/04/18,18:50,0.825,1.364,0.856,1.582,1.082,0.471,0.829,0.798,�k��,1.5,��
2018/04/18,19:00,0.825,1.363,0.855,1.583,1.085,0.472,0.830,0.797,�k�k��,1.7,��
2018/04/18,19:10,0.825,1.364,0.856,1.589,1.084,0.469,0.831,0.799,�k�k��,1.5,�L
2018/04/18,19:20,0.826,1.363,0.855,1.585,1.082,0.471,0.832,0.798,�k��,2.0,��
2018/04/18,19:30,0.826,1.365,0.855,1.584,1.084,0.471,0.830,0.798,�k��,1.9,��
2018/04/18,19:40,0.826,1.364,0.855,1.585,1.086,0.473,0.830,0.798,-,CALM,��
2018/04/18,19:50,0.827,1.365,0.855,1.582,1.083,0.471,0.830,0.800,��,0.9,��
2018/04/18,20:00,0.826,1.366,0.856,1.585,1.085,0.471,0.831,0.800,��,0.9,��
2018/04/18,20:10,0.826,1.364,0.855,1.583,1.087,0.471,0.831,0.798,-,CALM,��
2018/04/18,20:20,0.826,1.366,0.856,1.586,1.085,0.472,0.831,0.798,-,CALM,��
2018/04/18,20:30,0.827,1.365,0.858,1.587,1.085,0.472,0.829,0.797,���쐼,0.6,��
2018/04/18,20:40,0.826,1.367,0.854,1.585,1.086,0.471,0.830,0.799,��,1.7,��
2018/04/18,20:50,0.826,1.368,0.859,1.586,1.085,0.472,0.833,0.799,���쐼,1.1,��
2018/04/18,21:00,0.827,1.365,0.856,1.586,1.085,0.473,0.830,0.800,���쐼,1.5,��
2018/04/18,21:10,0.827,1.366,0.857,1.587,1.086,0.472,0.831,0.799,��,1.9,��
2018/04/18,21:20,0.826,1.363,0.855,1.588,1.085,0.473,0.830,0.801,��,1.5,��
2018/04/18,21:30,0.826,1.365,0.859,1.589,1.086,0.473,0.832,0.799,��,2.2,��
2018/04/18,21:40,0.830,1.367,0.858,1.589,1.086,0.474,0.833,0.798,���쐼,3.2,��
2018/04/18,21:50,0.828,1.367,0.859,1.589,1.086,0.473,0.830,0.801,���쐼,2.6,��
2018/04/18,22:00,0.829,1.368,0.857,1.587,1.086,0.473,0.830,0.800,���쐼,3.6,��
2018/04/18,22:10,0.829,1.366,0.859,1.590,1.085,0.472,0.833,0.801,���쐼,3.6,��
2018/04/18,22:20,0.829,1.370,0.858,1.587,1.085,0.473,0.831,0.801,�쐼,2.6,��
2018/04/18,22:30,0.827,1.369,0.856,1.585,1.087,0.472,0.830,0.800,���쐼,2.9,��
2018/04/18,22:40,0.828,1.367,0.859,1.588,1.088,0.473,0.831,0.801,���쐼,2.9,��
2018/04/18,22:50,0.827,1.366,0.857,1.588,1.086,0.474,0.832,0.801,��,2.6,��
2018/04/18,23:00,0.828,1.372,0.859,1.589,1.086,0.472,0.831,0.800,��,2.3,��
2018/04/18,23:10,0.828,1.369,0.860,1.589,1.087,0.473,0.831,0.800,���k��,1.7,��
2018/04/18,23:20,0.826,1.368,0.859,1.589,1.088,0.474,0.832,0.800,���k��,1.2,��
2018/04/18,23:30,0.826,1.371,0.858,1.589,1.088,0.473,0.830,0.800,���쐼,1.1,��
2018/04/18,23:40,0.826,1.368,0.857,1.587,1.089,0.472,0.832,0.801,�쐼,0.9,��
2018/04/18,23:50,0.828,1.368,0.856,1.590,1.088,0.473,0.832,0.799,�k��,2.0,��
